HG5PBP-13 Weather Reports


time (UTC)temp
F
wind
direction
speed
knots
gust
knots
rain 1hr
in
rain 24hr
in
rain mn
in
humidity
%
barometer
mb
20260507210438 55 199 2.6 3.5 0.00 0.03 0.03 8 1013.6
20260507205938 55 181 1.7 3.5 0.00 0.03 0.03 8 1013.8
20260507205438 55 206 2.6 3.5 0.00 0.03 0.03 8 1013.8
20260507204938 55 257 0.9 1.7 0.00 0.03 0.03 8 1013.7
20260507204438 55 232 0.9 1.7 0.00 0.03 0.03 8 1013.6
20260507203938 55 259 2.6 4.3 0.00 0.03 0.03 8 1013.5
20260507203438 55 217 1.7 4.3 0.00 0.03 0.03 8 1013.6
20260507202938 55 197 1.7 2.6 0.00 0.03 0.03 8 1013.8
20260507202438 55 281 1.7 2.6 0.00 0.03 0.03 8 1013.7
20260507201938 55 226 0.9 3.5 0.00 0.03 0.03 8 1013.6
20260507201438 55 216 0.9 3.5 0.00 0.03 0.03 8 1013.6
20260507200938 54 229 0.0 4.3 0.00 0.03 0.03 8 1013.4
20260507200438 54 251 0.0 2.6 0.00 0.03 0.03 8 1013.4
20260507195938 54 190 0.9 3.5 0.00 0.05 0.03 8 1013.4
20260507195438 55 226 0.0 4.3 0.00 0.05 0.03 8 1013.4
20260507194938 55 274 1.7 4.3 0.00 0.05 0.03 8 1013.5
20260507194438 55 233 2.6 4.3 0.00 0.05 0.03 8 1013.4
20260507193938 55 148 1.7 5.2 0.00 0.05 0.03 8 1013.5
20260507193438 55 242 0.9 5.2 0.00 0.05 0.03 8 1013.6
20260507192938 55 239 0.0 2.6 0.00 0.05 0.03 8 1013.4
20260507192438 55 148 2.6 4.3 0.00 0.05 0.03 8 1013.3
20260507191938 55 253 0.9 2.6 0.00 0.05 0.03 8 1013.2
20260507191438 55 144 0.9 3.5 0.00 0.05 0.03 8 1013.6
20260507190938 55 210 1.7 2.6 0.00 0.05 0.03 8 1013.5
20260507190438 55 231 0.0 3.5 0.00 0.05 0.03 8 1013.5
20260507185938 55 241 0.9 2.6 0.00 0.06 0.03 8 1013.2
20260507185439 55 237 1.7 2.6 0.00 0.06 0.03 8 1013.3
20260507184937 54 252 0.9 2.6 0.00 0.06 0.03 8 1013.4
20260507184437 54 260 1.7 3.5 0.00 0.06 0.03 8 1013.4
20260507183937 54 272 0.0 1.7 0.00 0.06 0.03 8 1013.2
20260507183437 54 227 0.9 2.6 0.00 0.06 0.03 8 1013.1
20260507182937 54 276 0.0 2.6 0.00 0.06 0.03 8 1013.1
20260507182437 54 229 0.0 3.5 0.00 0.06 0.03 8 1013.1
20260507181937 55 221 0.9 0.9 0.00 0.06 0.03 8 1012.9
20260507181437 55 231 0.0 0.9 0.00 0.06 0.03 8 1012.8
20260507180937 55 223 0.0 0.9 0.00 0.06 0.03 8 1012.8
20260507180437 55 185 1.7 3.5 0.00 0.06 0.03 8 1012.8
20260507175937 55 183 0.9 3.5 0.00 0.06 0.03 8 1012.4
20260507175437 55 187 1.7 5.2 0.00 0.06 0.03 8 1012.4
20260507174937 55 163 1.7 2.6 0.00 0.06 0.03 8 1012.5
20260507174437 55 180 0.9 2.6 0.00 0.06 0.03 8 1012.3
20260507173937 55 166 1.7 2.6 0.00 0.06 0.03 8 1012.0
20260507173437 55 197 0.9 4.3 0.00 0.06 0.03 8 1012.1
20260507172937 55 201 2.6 4.3 0.00 0.06 0.03 8 1012.3
20260507172437 56 171 0.9 4.3 0.00 0.06 0.03 8 1012.2
20260507171937 56 165 1.7 5.2 0.00 0.07 0.03 8 1012.0
20260507171437 56 171 4.3 5.2 0.00 0.07 0.03 8 1012.1
20260507170937 57 136 3.5 5.2 0.00 0.07 0.03 8 1011.9
20260507170437 56 210 3.5 7.0 0.00 0.07 0.03 8 1012.0
20260507165937 56 135 2.6 5.2 0.00 0.06 0.03 8 1011.9
20260507165437 56 145 2.6 4.3 0.00 0.06 0.03 8 1012.0
20260507164937 56 160 1.7 3.5 0.00 0.06 0.03 8 1012.0
20260507164437 57 217 1.7 3.5 0.00 0.06 0.03 8 1012.1
20260507163937 57 216 0.0 1.7 0.00 0.06 0.03 8 1012.3
20260507163437 57 197 0.0 1.7 0.00 0.06 0.03 8 1012.0
20260507162937 57 245 0.0 1.7 0.00 0.06 0.03 8 1012.1
20260507162437 57 194 0.9 1.7 0.00 0.06 0.03 8 1012.3
20260507161937 57 257 0.9 2.6 0.00 0.06 0.03 8 1012.0
20260507161436 57 227 0.9 2.6 0.00 0.06 0.03 8 1012.2
20260507160937 57 250 0.0 3.5 0.00 0.06 0.03 8 1012.0
20260507160436 57 249 0.9 1.7 0.00 0.06 0.03 8 1011.9
20260507155936 57 252 0.0 2.6 0.00 0.06 0.03 8 1011.9
20260507155436 57 241 0.9 1.7 0.00 0.06 0.03 8 1011.7
20260507154936 57 236 0.0 1.7 0.00 0.06 0.03 8 1011.9
20260507154436 57 248 0.0 2.6 0.00 0.06 0.03 8 1011.8
20260507153936 57 249 0.9 3.5 0.00 0.06 0.03 8 1012.0
20260507153436 57 207 0.9 2.6 0.00 0.07 0.03 8 1012.1
20260507152936 57 256 0.9 4.3 0.01 0.07 0.03 8 1012.2
20260507152437 57 224 0.9 2.6 0.02 0.08 0.03 8 1012.2
20260507151936 56 245 0.9 5.2 0.02 0.08 0.03 8 1012.1
20260507151436 56 223 1.7 2.6 0.02 0.09 0.03 8 1012.3
20260507150936 56 231 1.7 4.3 0.02 0.09 0.03 8 1012.2
20260507150436 56 267 0.9 2.6 0.02 0.09 0.03 8 1012.3
20260507145936 56 265 0.9 2.6 0.03 0.06 0.03 8 1012.1
20260507145436 56 251 1.7 4.3 0.03 0.06 0.03 8 1012.3
20260507144936 56 232 1.7 1.7 0.03 0.06 0.03 8 1012.5
20260507144436 57 253 0.9 1.7 0.02 0.06 0.03 8 1012.2
20260507143936 57 280 0.9 3.5 0.02 0.06 0.03 8 1012.2
20260507143436 57 218 0.9 2.6 0.02 0.05 0.02 7 1012.1
20260507142936 57 205 0.9 4.3 0.01 0.04 0.02 7 1012.0
20260507142436 58 267 0.9 4.3 0.01 0.04 0.01 7 1012.0
20260507141936 58 175 0.9 3.5 0.00 0.04 0.01 7 1011.9
20260507141436 58 262 0.9 7.0 0.00 0.03 0.00 7 1012.0
20260507140936 59 259 1.7 4.3 0.00 0.03 0.00 7 1011.9
20260507140436 59 264 0.9 4.3 0.00 0.03 0.00 7 1012.0
20260507135936 60 234 0.0 2.6 0.00 0.03 0.00 7 1012.2
20260507135436 60 244 3.5 5.2 0.00 0.03 0.00 7 1011.9
20260507134936 61 248 4.3 5.2 0.00 0.03 0.00 6 1011.8
20260507134436 61 112 1.7 3.5 0.00 0.03 0.00 6 1012.0
20260507133936 62 260 2.6 5.2 0.00 0.03 0.00 6 1011.7
20260507133436 62 222 1.7 4.3 0.00 0.03 0.00 6 1011.6
20260507132935 62 290 1.7 3.5 0.00 0.03 0.00 6 1011.6
20260507132435 62 220 0.9 5.2 0.00 0.03 0.00 6 1011.3
20260507131935 63 203 2.6 5.2 0.00 0.03 0.00 6 1011.3
20260507131435 63 245 0.9 10.4 0.00 0.03 0.00 6 1011.5
20260507130935 63 230 1.7 7.8 0.00 0.03 0.00 6 1011.5
20260507130435 63 334 1.7 4.3 0.00 0.03 0.00 6 1011.4
20260507125935 63 236 1.7 5.2 0.00 0.03 0.00 6 1011.4
20260507125435 63 229 1.7 5.2 0.00 0.03 0.00 6 1011.4
20260507124935 63 295 4.3 7.8 0.00 0.03 0.00 6 1011.7
20260507124435 63 266 0.0 0.9 0.00 0.03 0.00 6 1011.4
20260507123935 63 265 1.7 3.5 0.00 0.03 0.00 6 1011.9
20260507123435 63 260 2.6 3.5 0.00 0.03 0.00 6 1011.4
20260507122935 63 220 0.0 1.7 0.00 0.03 0.00 6 1011.4
20260507122435 63 287 1.7 4.3 0.00 0.03 0.00 6 1011.5
20260507121935 63 204 0.0 3.5 0.00 0.03 0.00 6 1011.3
20260507121435 63 265 2.6 4.3 0.00 0.03 0.00 6 1011.4
20260507120935 62 299 0.9 5.2 0.00 0.03 0.00 6 1011.6
20260507120435 63 320 0.0 3.5 0.00 0.03 0.00 6 1011.6
20260507115935 63 281 0.9 2.6 0.00 0.03 0.00 6 1011.5
20260507115435 63 252 1.7 2.6 0.00 0.03 0.00 6 1011.5
20260507114935 64 224 0.0 2.6 0.00 0.03 0.00 6 1011.6
20260507114435 64 206 1.7 3.5 0.00 0.03 0.00 6 1011.5
20260507113935 64 286 4.3 5.2 0.00 0.03 0.00 6 1011.4
20260507113435 64 256 0.9 3.5 0.00 0.03 0.00 6 1011.2
20260507112935 63 271 0.9 3.5 0.00 0.03 0.00 6 1011.6
20260507112435 63 226 0.9 2.6 0.00 0.03 0.00 6 1011.5
20260507111935 64 248 1.7 1.7 0.00 0.03 0.00 6 1011.4
20260507111435 64 304 3.5 7.8 0.00 0.03 0.00 6 1011.4
20260507110934 64 249 0.0 8.7 0.00 0.03 0.00 6 1011.3
20260507110434 65 239 1.7 3.5 0.00 0.03 0.00 6 1011.1
20260507105934 65 236 2.6 4.3 0.00 0.03 0.00 6 1011.1
20260507105437 65 249 0.9 3.5 0.00 0.03 0.00 6 1011.6
20260507104934 65 279 1.7 3.5 0.00 0.03 0.00 6 1011.2
20260507104434 65 258 1.7 7.0 0.00 0.03 0.00 6 1011.4
20260507103934 65 232 3.5 7.0 0.00 0.03 0.00 6 1011.1
20260507103434 65 169 1.7 3.5 0.00 0.03 0.00 6 1011.3
20260507102934 65 203 1.7 4.3 0.00 0.03 0.00 6 1011.6
20260507102434 65 197 4.3 8.7 0.00 0.03 0.00 6 1011.4
20260507101934 65 258 1.7 8.7 0.00 0.03 0.00 6 1011.4
20260507101434 65 154 3.5 7.0 0.00 0.03 0.00 6 1011.4
20260507100934 66 111 0.9 2.6 0.00 0.03 0.00 6 1011.4
20260507100434 66 223 1.7 5.2 0.00 0.03 0.00 6 1011.1
20260507095934 65 158 7.0 10.4 0.00 0.03 0.00 6 1011.6
20260507095434 64 160 1.7 2.6 0.00 0.03 0.00 6 1011.6
20260507094934 64 255 3.5 5.2 0.00 0.03 0.00 6 1011.6
20260507094434 63 184 3.5 4.3 0.00 0.03 0.00 6 1011.4
20260507093934 63 242 4.3 7.0 0.00 0.03 0.00 6 1011.5
20260507093434 63 187 0.9 4.3 0.00 0.03 0.00 6 1011.3
20260507092934 63 209 0.0 4.3 0.00 0.03 0.00 6 1011.4
20260507092434 63 239 0.9 3.5 0.00 0.03 0.00 6 1011.4
20260507091934 62 165 1.7 3.5 0.00 0.03 0.00 6 1011.6
20260507091434 62 292 1.7 7.0 0.00 0.03 0.00 6 1011.3
20260507090934 62 164 2.6 8.7 0.00 0.03 0.00 7 1011.3
20260507090434 62 236 2.6 3.5 0.00 0.03 0.00 7 1011.4
20260507085934 61 264 1.7 5.2 0.00 0.03 0.00 7 1011.7
20260507085434 61 170 6.1 7.8 0.00 0.03 0.00 7 1011.5
20260507084934 61 354 3.5 5.2 0.00 0.03 0.00 7 1011.4
20260507084434 61 283 5.2 9.6 0.00 0.03 0.00 7 1011.4
20260507083934 60 237 0.9 4.3 0.00 0.03 0.00 7 1011.5
20260507083433 60 169 5.2 7.8 0.00 0.03 0.00 7 1011.2
20260507082933 59 234 1.7 7.0 0.00 0.03 0.00 7 1011.5
20260507082433 59 279 2.6 3.5 0.00 0.03 0.00 7 1011.7
20260507081933 59 259 2.6 5.2 0.00 0.03 0.00 7 1011.5
20260507081433 59 280 3.5 8.7 0.00 0.03 0.00 7 1011.3
20260507080933 59 267 0.0 3.5 0.00 0.03 0.00 7 1011.3
20260507080433 59 248 0.0 2.6 0.00 0.03 0.00 7 1011.2
20260507075933 59 266 1.7 3.5 0.00 0.03 0.00 7 1011.1
20260507075433 59 277 1.7 3.5 0.00 0.03 0.00 7 1011.1
20260507074933 59 271 2.6 4.3 0.00 0.03 0.00 7 1011.1
20260507074433 59 267 0.0 1.7 0.00 0.03 0.00 7 1011.2
20260507073933 59 262 0.0 3.5 0.00 0.03 0.00 7 1011.3
20260507073433 59 304 3.5 5.2 0.00 0.03 0.00 7 1011.0
20260507072933 59 254 1.7 5.2 0.00 0.03 0.00 7 1011.1
20260507072433 59 260 3.5 7.0 0.00 0.03 0.00 7 1011.0
20260507071933 59 235 1.7 4.3 0.00 0.03 0.00 7 1010.9
20260507071433 59 221 1.7 5.2 0.00 0.03 0.00 7 1010.9
20260507070933 59 257 3.5 7.0 0.00 0.03 0.00 7 1011.0
20260507070433 59 236 3.5 5.2 0.00 0.03 0.00 7 1010.7
20260507065933 58 241 3.5 7.8 0.00 0.03 0.00 7 1010.9
20260507065433 58 242 4.3 8.7 0.00 0.03 0.00 7 1010.9
20260507064933 58 197 2.6 10.4 0.00 0.03 0.00 7 1010.9
20260507064433 58 327 4.3 5.2 0.00 0.03 0.00 7 1010.7
20260507063933 58 298 1.7 3.5 0.00 0.03 0.00 7 1010.9
20260507063433 57 280 3.5 4.3 0.00 0.03 0.00 7 1010.9
20260507062933 57 256 3.5 3.5 0.00 0.03 0.00 7 1010.8
20260507062433 57 206 1.7 2.6 0.00 0.03 0.00 7 1010.9
20260507061933 57 239 1.7 4.3 0.00 0.03 0.00 7 1010.8
20260507061433 57 239 2.6 3.5 0.00 0.03 0.00 7 1011.0
20260507060933 57 216 1.7 3.5 0.00 0.03 0.00 7 1010.7
20260507060433 56 283 1.7 4.3 0.00 0.03 0.00 7 1010.7
20260507055932 56 273 1.7 3.5 0.00 0.03 0.00 7 1010.7
20260507055432 56 221 0.0 3.5 0.00 0.03 0.00 7 1010.7
20260507054932 56 265 0.0 2.6 0.00 0.03 0.00 7 1010.7
20260507054432 56 156 1.7 3.5 0.00 0.03 0.00 7 1010.7
20260507053932 56 244 0.9 2.6 0.00 0.03 0.00 7 1010.5
20260507053433 56 193 0.9 2.6 0.00 0.03 0.00 7 1010.7
20260507052932 56 206 0.9 5.2 0.00 0.03 0.00 7 1010.5
20260507052432 56 133 1.7 4.3 0.00 0.03 0.00 7 1010.4
20260507051932 56 257 1.7 5.2 0.00 0.03 0.00 7 1010.4
20260507051432 56 266 1.7 7.0 0.00 0.03 0.00 7 1010.4
20260507050432 56 242 3.5 4.3 0.00 0.03 0.00 7 1010.1
20260507045932 56 260 1.7 7.0 0.00 0.03 0.00 7 1010.3
20260507045432 56 211 0.9 4.3 0.00 0.03 0.00 7 1010.3
20260507044932 56 212 3.5 4.3 0.00 0.03 0.00 7 1010.2
20260507043932 55 261 1.7 5.2 0.00 0.03 0.00 7 1010.0
20260507043432 56 261 1.7 8.7 0.00 0.03 0.00 7 1009.6
20260507042932 56 260 1.7 7.0 0.00 0.03 0.00 7 1009.8
20260507042432 56 236 3.5 10.4 0.00 0.03 0.00 7 1009.6
20260507041932 56 226 4.3 8.7 0.00 0.03 0.00 7 1009.5
20260507041432 56 227 4.3 7.0 0.00 0.03 0.00 7 1009.4
20260507040932 55 236 1.7 12.2 0.00 0.03 0.00 8 1009.4
20260507040432 55 248 4.3 8.7 0.00 0.03 0.00 8 1009.5
20260507035932 55 257 7.0 12.2 0.00 0.03 0.00 8 1009.3
20260507035432 55 232 5.2 7.8 0.00 0.03 0.00 8 1009.2
20260507034932 55 211 4.3 12.2 0.00 0.03 0.00 8 1009.2
20260507034431 55 230 4.3 7.8 0.00 0.03 0.00 8 1009.4
20260507033931 55 294 3.5 7.8 0.00 0.03 0.00 8 1009.4
20260507033431 55 264 6.1 9.6 0.00 0.03 0.00 8 1009.3
20260507032931 55 232 3.5 7.8 0.00 0.03 0.00 8 1009.3
20260507032431 56 243 1.7 8.7 0.00 0.03 0.00 8 1009.3
20260507031931 56 226 7.0 12.2 0.00 0.03 0.00 7 1009.5
20260507031431 56 250 5.2 9.6 0.00 0.03 0.00 7 1009.3
20260507030931 56 201 3.5 9.6 0.00 0.03 0.00 7 1009.1
20260507030431 56 312 4.3 8.7 0.00 0.03 0.00 7 1009.3
20260507025931 56 253 3.5 11.3 0.00 0.03 0.00 7 1009.3
20260507025431 56 255 3.5 9.6 0.00 0.03 0.00 7 1009.3
20260507024931 56 215 2.6 10.4 0.00 0.03 0.00 7 1009.1
20260507024431 57 307 5.2 8.7 0.00 0.03 0.00 7 1009.1
20260507023931 57 238 5.2 11.3 0.00 0.03 0.00 7 1009.3
20260507023431 57 254 3.5 10.4 0.00 0.03 0.00 7 1009.1
20260507022931 57 326 4.3 10.4 0.00 0.03 0.00 7 1009.1
20260507022431 57 189 4.3 10.4 0.00 0.03 0.00 7 1009.1
20260507021931 57 222 4.3 10.4 0.00 0.03 0.00 7 1009.0
20260507021431 58 283 2.6 10.4 0.00 0.03 0.00 7 1008.8
20260507020931 58 223 4.3 10.4 0.00 0.03 0.00 7 1009.1
20260507020431 58 264 6.1 10.4 0.00 0.03 0.00 7 1009.3
20260507015931 58 288 5.2 8.7 0.00 0.03 0.00 7 1008.8
20260507015431 58 290 3.5 12.2 0.00 0.03 0.00 7 1009.1
20260507014931 58 249 3.5 9.6 0.00 0.03 0.00 7 1009.0
20260507014431 57 251 3.5 8.7 0.00 0.03 0.00 7 1008.9
20260507013931 57 302 4.3 8.7 0.00 0.03 0.00 7 1009.2
20260507013431 57 259 4.3 11.3 0.00 0.03 0.00 7 1009.1
20260507012931 57 244 4.3 10.4 0.00 0.03 0.00 7 1009.3
20260507012431 58 308 4.3 9.6 0.00 0.03 0.00 7 1009.3
20260507011931 58 134 2.6 10.4 0.00 0.03 0.00 7 1009.2
20260507011431 58 239 7.0 9.6 0.00 0.03 0.00 7 1009.4
20260507010931 58 235 7.0 9.6 0.00 0.03 0.00 7 1009.1
20260507010431 58 273 3.5 10.4 0.00 0.03 0.00 7 1009.1
20260507005930 58 263 2.6 7.0 0.00 0.03 0.00 7 1009.2
20260507005430 58 279 3.5 9.6 0.00 0.03 0.00 7 1009.1
20260507004930 58 238 3.5 7.0 0.00 0.03 0.00 7 1009.2
20260507004431 58 247 2.6 9.6 0.00 0.03 0.00 7 1009.1
20260507003930 58 284 2.6 7.0 0.00 0.03 0.00 7 1009.3
20260507003430 58 243 1.7 8.7 0.00 0.03 0.00 7 1009.3
20260507002930 58 273 3.5 13.0 0.00 0.03 0.00 7 1009.4
20260507002430 58 277 0.9 7.8 0.00 0.03 0.00 7 1009.3
20260507001930 58 259 1.7 7.0 0.00 0.03 0.00 7 1009.5
20260507001430 59 223 7.8 10.4 0.00 0.03 0.00 7 1009.5
20260507000930 59 276 1.7 11.3 0.00 0.03 0.00 7 1009.5
20260507000430 59 253 1.7 7.8 0.00 0.03 0.00 7 1009.7
20260506235930 58 287 3.5 7.8 0.00 0.03 0.00 7 1009.6
20260506235430 58 188 5.2 8.7 0.00 0.03 0.00 7 1009.9
20260506234930 58 236 1.7 3.5 0.00 0.03 0.00 7 1009.7
20260506234430 58 245 2.6 9.6 0.00 0.03 0.00 7 1009.8
20260506233930 58 209 4.3 7.0 0.00 0.03 0.00 7 1009.7
20260506233430 58 269 3.5 4.3 0.00 0.03 0.00 7 1009.8
20260506232930 58 246 0.9 7.0 0.00 0.03 0.00 8 1010.0
20260506232430 57 182 0.9 7.0 0.00 0.03 0.00 8 1009.8
20260506231930 57 254 5.2 9.6 0.00 0.03 0.00 8 1010.3
20260506231430 57 251 1.7 9.6 0.00 0.03 0.00 8 1010.0
20260506230930 57 286 3.5 9.6 0.00 0.03 0.00 8 1010.1
20260506230430 57 203 6.1 13.0 0.00 0.03 0.00 8 1010.4
20260506225930 57 210 4.3 10.4 0.00 0.03 0.00 8 1010.1
20260506225430 58 175 5.2 8.7 0.00 0.02 0.00 7 1009.9
20260506224930 58 175 7.0 15.6 0.00 0.02 0.00 7 1009.9
20260506224430 59 187 5.2 11.3 0.00 0.02 0.00 7 1010.0
20260506223930 59 272 1.7 10.4 0.00 0.02 0.00 7 1009.9
20260506223430 60 142 1.7 11.3 0.00 0.02 0.00 7 1009.7
20260506222930 60 199 5.2 9.6 0.00 0.02 0.00 7 1009.4
20260506222429 60 11 2.6 10.4 0.00 0.02 0.00 7 1009.2
20260506221929 60 231 2.6 10.4 0.00 0.02 0.00 7 1008.8
20260506221429 60 244 4.3 10.4 0.00 0.02 0.00 7 1008.8
20260506220929 60 236 3.5 13.0 0.00 0.02 0.00 7 1008.9
20260506220429 60 153 2.6 5.2 0.00 0.02 0.00 7 1009.2
20260506215929 60 279 0.9 8.7 0.00 0.02 0.02 7 1009.0
20260506215429 60 240 2.6 7.0 0.00 0.02 0.02 7 1009.0
20260506214929 60 259 3.5 5.2 0.00 0.02 0.02 7 1008.8
20260506214429 60 271 3.5 5.2 0.00 0.02 0.02 7 1008.7
20260506213929 60 251 1.7 8.7 0.00 0.02 0.02 7 1008.7
20260506213429 61 247 5.2 9.6 0.00 0.02 0.02 7 1008.8
20260506212929 61 231 4.3 9.6 0.00 0.02 0.02 7 1008.8
20260506212429 61 245 5.2 8.7 0.00 0.02 0.02 7 1009.0
20260506211929 61 231 4.3 7.0 0.00 0.02 0.02 7 1008.7
20260506211429 60 286 5.2 13.0 0.00 0.02 0.02 7 1008.9
20260506210929 60 260 3.5 8.7 0.00 0.03 0.02 7 1008.7